Location: Dammartin
(48.9032°N, 1.6195°E)
Time: 18:21:52
(UTC+00:00)

BlueWalker 3 - Pass Details

Date: 25 April 2024
Orbit: 482 x 494 km, 53.2° (Epoch: 22 May)

Event Time Altitude Azimuth Distance (km) Brightness Sun altitude
Rises 20:57:15 0° 285° (WNW) 2,578 6.6 -16.6°
Reaches altitude 10° 20:59:30 10° 293° (WNW) 1,697 5.7 -16.9°
Maximum altitude 21:03:11 44° 6° (N) 703 2.9 -17.3°
Enters shadow 21:05:45 18° 72° (ENE) 1,287 3.8 -17.6°
